This demonstration page uses our WeatherBlox Daily Observations layout. Learn more.

Left ArrowRight Arrow

40.92945, -100.16068

Hourly Observations for February 10, 2021

Temp ( °F °C ) Dew Point ( °F °C ) Humidity (%) Winds ( mph kmh ) Pressure ( in mb ) Visibility ( mi km ) Precip ( " mm )
12:15 am 00:15 Partly Cloudy 6 -14.6 -1 -18.4 73 73 E 6 9 30.51 1033 10 16.0934 N/A
12:35 am 00:35 Partly Cloudy 6 -14.6 -1 -18.5 72 72 E 6 9 30.51 1033 10 16.0934 N/A
12:55 am 00:55 Mostly Cloudy 6 -14.6 -1 -18.5 72 72 E 7 11 30.5 1033 10 16.0934 N/A
1:15 am 01:15 Mostly Cloudy 6 -14.6 -1 -18.6 72 72 E 7 11 30.5 1033 10 16.0934 N/A
1:35 am 01:35 Mostly Cloudy 6 -14.6 -2 -19 69 69 E 6 9 30.51 1033 10 16.0934 N/A
1:55 am 01:55 Cloudy 5 -14.9 -2 -19 71 71 ENE 7 11 30.52 1033 10 16.0934 N/A
2:15 am 02:15 Cloudy 6 -14.7 -1 -18.6 72 72 ENE 5 7 30.51 1033 10 16.0934 N/A
2:35 am 02:35 Cloudy 6 -14.7 -1 -18.5 73 73 NE 5 7 30.52 1034 10 16.0934 N/A
2:55 am 02:55 Mostly Cloudy 6 -14.6 -1 -18.5 72 72 ENE 6 9 30.5 1033 10 16.0934 N/A
3:15 am 03:15 Mostly Cloudy 5 -14.8 -1 -18.5 74 74 ENE 5 7 30.51 1033 10 16.0934 N/A
3:35 am 03:35 Mostly Cloudy 5 -14.8 -2 -18.7 72 72 ENE 3 6 30.53 1034 10 16.0934 N/A
3:55 am 03:55 Cloudy 5 -14.8 -1 -18.5 74 74 NE 3 6 30.52 1033 10 16.0934 N/A
4:15 am 04:15 Cloudy 5 -14.8 -1 -18.4 74 74 N N/A 30.54 1034 10 16.0934 N/A
4:35 am 04:35 Cloudy 6 -14.7 -1 -18.4 74 74 N N/A 30.53 1034 10 16.0934 N/A
4:55 am 04:55 Cloudy 6 -14.6 -1 -18.5 72 72 N N/A 30.52 1034 10 16.0934 N/A
5:15 am 05:15 Cloudy 6 -14.6 -1 -18.5 72 72 NNE 3 6 30.51 1033 10 16.0934 N/A
5:35 am 05:35 Cloudy 6 -14.7 -1 -18.3 74 74 NNE 3 6 30.52 1034 10 16.0934 N/A
5:55 am 05:55 Mostly Cloudy 5 -15 -1 -18.5 75 75 N 5 7 30.52 1033 10 16.0934 N/A
6:15 am 06:15 Mostly Cloudy 5 -14.8 N/A 77 77 N 3 6 30.53 1034 10 16.0934 N/A
6:35 am 06:35 Cloudy 6 -14.6 N/A 77 77 N N/A 30.52 1034 10 16.0934 N/A
6:55 am 06:55 Mostly Cloudy 6 -14.5 N/A 77 77 NNW 3 6 30.52 1034 10 16.0934 N/A
7:15 am 07:15 Partly Cloudy 5 -15.1 N/A 79 79 N 3 6 30.53 1034 10 16.0934 N/A
7:35 am 07:35 Clear 4 -15.3 N/A 80 80 NNE 5 7 30.53 1034 10 16.0934 N/A
7:55 am 07:55 Sunny 5 -15 N/A 79 79 N 5 7 30.55 1034 10 16.0934 N/A
8:15 am 08:15 Sunny 5 -15.1 -1 -18.1 78 78 NE 5 7 30.55 1034 10 16.0934 N/A
8:35 am 08:35 Sunny 5 -15.2 -1 -18.2 78 78 N N/A 30.56 1035 10 16.0934 N/A
8:55 am 08:55 Sunny 5 -15 -1 -18.2 77 77 N N/A 30.57 1035 10 16.0934 N/A
9:15 am 09:15 Sunny 6 -14.5 N/A 77 77 N N/A 30.56 1035 10 16.0934 N/A
9:35 am 09:35 Partly Cloudy 7 -14 1 -17.5 75 75 N N/A 30.57 1035 10 16.0934 N/A
9:55 am 09:55 Mostly Cloudy 7 -14 1 -17.5 75 75 NE 3 6 30.57 1035 10 16.0934 N/A
10:15 am 10:15 Mostly Cloudy 7 -13.8 1 -17.3 75 75 ENE 3 6 30.57 1035 10 16.0934 N/A
10:35 am 10:35 Partly Cloudy 7 -14 1 -17.4 76 76 ENE 5 7 30.57 1035 10 16.0934 N/A
10:55 am 10:55 Mostly Cloudy 7 -13.7 1 -17 76 76 ENE 3 6 30.57 1035 10 16.0934 N/A
11:15 am 11:15 Partly Cloudy 8 -13.6 1 -17 76 76 N N/A 30.57 1035 10 16.0934 N/A
11:35 am 11:35 Sunny 9 -13 2 -16.6 75 75 ENE 3 6 30.56 1035 7 11.26538 N/A
11:55 am 11:55 Sunny 10 -12.5 2 -16.4 73 73 NE 7 11 30.55 1035 10 16.0934 N/A
12:15 pm 12:15 Sunny 10 -12.5 1 -17 69 69 ENE 6 9 30.54 1034 10 16.0934 N/A
12:35 pm 12:35 Sunny 10 -12.2 2 -16.8 69 69 NE 6 9 30.54 1034 10 16.0934 N/A
12:55 pm 12:55 Partly Cloudy 10 -12 1 -17.1 66 66 ENE 7 11 30.53 1034 10 16.0934 N/A
1:15 pm 13:15 Partly Cloudy 10 -12.3 2 -16.9 69 69 NE 7 11 30.53 1034 10 16.0934 N/A
1:35 pm 13:35 Partly Cloudy 10 -12.2 1 -17 68 68 NE 7 11 30.53 1034 10 16.0934 N/A
1:55 pm 13:55 Mostly Cloudy 10 -12.3 1 -17.1 68 68 ENE 6 9 30.52 1033 10 16.0934 N/A
2:15 pm 14:15 Mostly Cloudy 10 -12.2 2 -16.9 68 68 E 6 9 30.51 1033 10 16.0934 N/A
2:35 pm 14:35 Partly Cloudy 10 -12.1 2 -16.7 69 69 E 6 9 30.5 1033 10 16.0934 N/A
2:55 pm 14:55 Sunny 10 -12 2 -16.9 67 67 ENE 5 7 30.49 1033 10 16.0934 N/A
3:15 pm 15:15 Partly Cloudy 11 -11.8 2 -16.9 66 66 NE 5 7 30.5 1033 10 16.0934 N/A
3:35 pm 15:35 Cloudy 11 -11.7 2 -16.6 67 67 E 6 9 30.5 1033 10 16.0934 N/A
3:55 pm 15:55 Cloudy 11 -11.8 1 -17 66 66 ENE 5 7 30.51 1033 10 16.0934 N/A
4:15 pm 16:15 Cloudy 10 -12.1 2 -16.4 71 71 ENE 7 11 30.52 1033 10 16.0934 N/A
5:35 pm 17:35 Cloudy 8 -13.4 1 -17.5 72 72 E 6 9 30.53 1034 10 16.0934 N/A
5:55 pm 17:55 Cloudy 8 -13.5 1 -17.5 72 72 E 7 11 30.53 1034 10 16.0934 N/A
6:15 pm 18:15 Cloudy 7 -13.8 N/A 73 73 E 6 9 30.53 1034 10 16.0934 N/A
6:35 pm 18:35 Cloudy 7 -13.8 N/A 73 73 E 6 9 30.54 1034 10 16.0934 N/A
6:55 pm 18:55 Cloudy 7 -13.9 N/A 73 73 E 6 9 30.55 1034 10 16.0934 N/A
7:15 pm 19:15 Cloudy 6 -14.5 -1 -18.1 74 74 E 5 7 30.56 1035 10 16.0934 N/A
7:35 pm 19:35 Cloudy 5 -15 -1 -18.5 75 75 E 6 9 30.56 1035 10 16.0934 N/A
7:55 pm 19:55 Partly Cloudy 5 -15.2 -1 -18.5 76 76 E 5 7 30.57 1035 10 16.0934 N/A
8:15 pm 20:15 Clear 5 -15.2 -1 -18.5 76 76 ESE 6 9 30.57 1035 10 16.0934 N/A
8:35 pm 20:35 Clear 2 -16.4 -3 -19.3 78 78 E 5 7 30.59 1036 10 16.0934 N/A
8:55 pm 20:55 Clear 1 -17.3 -3 -19.6 82 82 E 3 6 30.6 1036 10 16.0934 N/A
9:15 pm 21:15 Partly Cloudy 1 -17.5 -3 -19.6 84 84 E 3 6 30.62 1037 10 16.0934 N/A
9:35 pm 21:35 Partly Cloudy N/A -4 -20 84 84 E 3 6 30.62 1037 10 16.0934 N/A
9:55 pm 21:55 Partly Cloudy -2 -18.7 -5 -20.5 86 86 N N/A 30.64 1038 10 16.0934 N/A
10:15 pm 22:15 Partly Cloudy -3 -19.4 -7 -21.4 84 84 E 3 6 30.65 1038 10 16.0934 N/A
10:35 pm 22:35 Mostly Cloudy -1 -18.4 -5 -20.3 85 85 N N/A 30.64 1037 10 16.0934 N/A
10:55 pm 22:55 Partly Cloudy -2 -18.8 -6 -21 83 83 N N/A 30.64 1038 10 16.0934 N/A
11:15 pm 23:15 Clear -3 -19.2 -7 -21.4 83 83 N N/A 30.65 1038 10 16.0934 N/A
11:35 pm 23:35 Clear -1 -18.5 -5 -20.6 84 84 N N/A 30.64 1038 10 16.0934 N/A
11:55 pm 23:55 Clear -1 -18.4 -5 -20.5 84 84 N N/A 30.64 1037 10 16.0934 N/A

Powered by AerisWeather